This is the latest recevied weather packets stored in our database for station/object JE0GNV-13. If no packets are shown the sender has not sent any weather packets the latest 10 day(s).
| Time | Temp. | Humidity | Pressure | Rain* | Wind** | Luminosity | Snow |
|---|---|---|---|---|---|---|---|
| 1777695001 | 21.67° C | 38% | 1005.8 hPa | 0 mm | - | - | - |
| 1777694401 | 21.11° C | 40% | 1005.8 hPa | 0 mm | - | - | - |
| 1777693801 | 21.11° C | 40% | 1005.8 hPa | 0 mm | - | - | - |
| 1777693201 | 21.11° C | 42% | 1005.8 hPa | 0 mm | - | - | - |
| 1777692601 | 20.56° C | 41% | 1005.7 hPa | 0 mm | - | - | - |
| 1777692000 | 20.56° C | 40% | 1005.9 hPa | 0 mm | - | - | - |
| 1777691400 | 20.56° C | 44% | 1005.9 hPa | 0 mm | - | - | - |
| 1777690801 | 20° C | 46% | 1006 hPa | 0 mm | - | - | - |
| 1777690202 | 20° C | 48% | 1005.9 hPa | 0 mm | - | - | - |
| 1777689601 | 19.44° C | 49% | 1005.9 hPa | 0 mm | - | - | - |
| 1777689001 | 19.44° C | 53% | 1005.9 hPa | 0 mm | - | - | - |
| 1777688402 | 18.33° C | 49% | 1006 hPa | 0 mm | - | - | - |
| 1777687801 | 18.33° C | 51% | 1006 hPa | 0 mm | - | - | - |
| 1777687200 | 18.89° C | 50% | 1005.9 hPa | 0 mm | - | - | - |
| 1777686601 | 18.33° C | 54% | 1005.8 hPa | 0 mm | - | - | - |
| 1777686000 | 17.22° C | 57% | 1005.8 hPa | 0 mm | - | - | - |
| 1777685400 | 17.22° C | 59% | 1005.9 hPa | 0 mm | - | - | - |
| 1777684800 | 16.67° C | 62% | 1005.9 hPa | 0 mm | - | - | - |
| 1777684201 | 16.67° C | 60% | 1005.9 hPa | 0 mm | - | - | - |
| 1777683601 | 16.11° C | 65% | 1005.8 hPa | 0 mm | - | - | - |
| 1777683001 | 15° C | 65% | 1005.6 hPa | 0 mm | - | - | - |
| 1777682401 | 14.44° C | 68% | 1005.6 hPa | 0 mm | - | - | - |
| 1777681800 | 14.44° C | 67% | 1005.7 hPa | 0 mm | - | - | - |
| 1777681202 | 13.89° C | 70% | 1005.9 hPa | 0 mm | - | - | - |
| 1777680601 | 13.33° C | 74% | 1005.9 hPa | 0 mm | - | - | - |
* Rain latest hour (hover to see other rain measurements)
** Current wind speed in m/s (hover to see current wind gust speed)